Ellicott, CO

1:55 PM MDT on April 29, 2017 (GMT -0600)
Ellicott

Weather History for KABH - November, 2012

Change the Weather History Date:

Thursday, November 8, 2012

  Actual Average (KCOS) Record (KCOS)
Temperature  
Mean Temperature 52 °F -  
Max Temperature 66 °F 54 °F 78 °F (2006)
Min Temperature 39 °F 26 °F 12 °F (1888)
Degree Days  
Heating Degree Days 12    
Growing Degree Days 2 (Base 50)    
Moisture  
Dew Point 17 °F    
Average Humidity 27    
Maximum Humidity 58    
Minimum Humidity 13    
Precipitation  
Precipitation 0.00 in - - ()
Sea Level Pressure  
Sea Level Pressure 29.84 in    
Wind  
Wind Speed 11 mph (ESE)    
Max Wind Speed 20 mph    
Max Gust Speed 24 mph    
Averages and records for this station are not official NWS values.
T = Trace of Precipitation, MM = Missing Value Source: NWS Daily Summary

Daily Weather History Graph

Daily Weather History Graph

Search for Another Location

Airport or City:

Trip Planner

Search our weather history database for the weather conditions in past years. The results will help you decide how hot, cold, wet, or windy it might be!

Date:

Astronomy

Nov. 08, 2012 Rise Set
Actual Time 6:32 AM MST 4:49 PM MST
Civil Twilight 6:04 AM MST 5:17 PM MST
Nautical Twilight 5:32 AM MST 5:48 PM MST
Astronomical Twilight 5:01 AM MST 6:20 PM MST
Moon 12:33 AM MST (11/8) 1:28 PM MST (11/8)
Length of Visible Light 11h 12m
Length of Day
10h 16m
Waning Crescent, 32% of the Moon is Illuminated
Nov 8
Waning Crescent
Nov 13
New
Nov 20
First Quarter
Nov 28
Full
Dec 6
Last Quarter

Hourly Weather History & Observations

Time (MST) Temp. Windchill Dew Point Humidity Pressure Visibility Wind Dir Wind Speed Gust Speed Precip Events Conditions
12:56 AM 44.1 °F 39.5 °F 18.0 °F 35% 29.84 in - North 8.1 mph - N/A   Clear
1:56 AM 39.9 °F 34.5 °F 16.0 °F 38% 29.85 in - NNE 8.1 mph - N/A   Clear
2:56 AM 46.9 °F - 12.9 °F 25% 29.81 in - North 9.2 mph - N/A   Clear
3:56 AM 45.0 °F 39.3 °F 12.0 °F 26% 29.84 in - North 11.5 mph - N/A   Clear
4:56 AM 48.0 °F - 10.9 °F 22% 29.90 in - NNE 12.7 mph - N/A   Clear
5:56 AM 45.0 °F 39.7 °F 10.9 °F 25% 29.95 in - NNE 10.4 mph - N/A   Clear
6:56 AM 42.1 °F - 10.9 °F 28% 29.99 in - North - - N/A   Clear
7:56 AM 57.0 °F - 12.9 °F 18% 29.96 in - North - - N/A   Clear
8:56 AM 61.0 °F - 12.9 °F 15% 29.95 in - West 3.5 mph - 0.00 in   Clear
9:56 AM 64.0 °F - 12.0 °F 13% 29.93 in - SW 8.1 mph - N/A   Clear
10:56 AM 66.0 °F - 12.9 °F 13% 29.88 in - North - - N/A   Clear
11:56 AM 66.0 °F - 12.9 °F 13% 29.83 in - South 16.1 mph - N/A   Clear
12:56 PM 66.0 °F - 14.0 °F 13% 29.80 in - South 19.6 mph - N/A   Clear
1:56 PM 64.9 °F - 12.9 °F 13% 29.81 in - North - - N/A   Clear
2:56 PM 63.0 °F - 14.0 °F 15% 29.78 in - North - - N/A   Clear
3:56 PM 61.0 °F - 16.0 °F 17% 29.79 in - SSE 9.2 mph - N/A   Clear
4:56 PM 57.9 °F - 16.0 °F 19% 29.77 in - SSE 12.7 mph - N/A   Clear
5:56 PM 55.0 °F - 18.0 °F 23% 29.82 in - SE 11.5 mph - N/A   Clear
6:56 PM 52.0 °F - 19.9 °F 28% 29.84 in - ESE 15.0 mph - N/A   Clear
7:56 PM 48.9 °F - 24.1 °F 38% 29.78 in - SE 19.6 mph 24.2 mph N/A   Clear
8:56 PM 46.0 °F 39.3 °F 25.0 °F 44% 29.75 in - ESE 16.1 mph - N/A   Clear
9:56 PM 44.1 °F 36.8 °F 26.1 °F 49% 29.74 in - ESE 16.1 mph - N/A   Clear
10:56 PM 42.1 °F 34.5 °F 26.1 °F 53% 29.74 in - East 15.0 mph - N/A   Clear
11:56 PM 43.0 °F 37.7 °F 28.9 °F 58% 29.71 in - ESE 9.2 mph - N/A   Clear